Flag for Netherlands Weather past 2 weeks in Dordrecht, Netherlands

Now
46 °F

Cool.


Feels Like: 43 °F
Forecast: 37 / 54 °F
Wind: 7 mph from North

Location: Rotterdam Zestienhoven Airport

Current Time: Apr 18, 2015 at 10:02:53 PM

Latest Report: Apr 18, 2015 at 9:25 PM


Visibility: N/A

Pressure: 30.33 "Hg

Humidity: 82%

Dew point: 41 °F

Location of DordrechtLocation

Historic Weather in Dordrecht — Graph

°F

Dordrecht temperature yesterday

Maximum temperature yesterday: 54 °F (at 1:25 PM)
Minimum temperature yesterday: 43 °F (at 1:25 AM)
Average temperature yesterday: 48 °F

Past Weeks' High & Low Weather Summary

 TemperatureHumidityPressure
High70 °F (Apr 15, 1:55 PM)100% (Apr 5, 6:55 AM)30.63 "Hg (Apr 5, 6:55 AM)
Low30 °F (Apr 5, 5:25 AM)37% (Apr 10, 6:25 PM)29.92 "Hg (Apr 11, 1:55 AM)
Average48 °F77%30.26 "Hg
* Reported Apr 3 8:25 PM — Apr 18 8:55 PM, Dordrecht, Weather by CustomWeather, © 2015

Note: Actual official high and low records may vary slightly from our data, if they occured in-between our weather recording intervals... More about our weather records

Advertising

Dordrecht weather history for previous 24 hours

 ConditionsComfort  
Time TempWeatherWind HumidityBarometerVisibility
8:55 PM
Sat, Apr 18
48 °FCool.10 mph76%30.30 "HgN/A
8:25 PM50 °FCool.13 mph71%30.30 "HgN/A
7:55 PM52 °FCool.14 mph58%30.30 "HgN/A
7:25 PM54 °FClear.12 mph58%30.30 "HgN/A
6:55 PM55 °FRefreshingly cool.14 mph47%30.30 "HgN/A
6:25 PM55 °FRefreshingly cool.13 mph51%30.30 "HgN/A
5:55 PM55 °FClear.12 mph47%30.30 "HgN/A
5:25 PM57 °FRefreshingly cool.10 mph44%30.33 "HgN/A
4:55 PM57 °FClear.9 mph51%30.33 "HgN/A
4:25 PM57 °FClear.12 mph48%30.33 "HgN/A
3:55 PM57 °FClear.12 mph48%30.33 "HgN/A
3:25 PM55 °FClear.13 mph47%30.36 "HgN/A
2:55 PM57 °FClear.10 mph48%30.36 "HgN/A
2:25 PM55 °FClear.12 mph47%30.36 "HgN/A
1:55 PM55 °FClear.12 mph51%30.36 "HgN/A
1:25 PM55 °FClear.14 mph55%30.36 "HgN/A
12:55 PM55 °FClear.12 mph44%30.36 "HgN/A
12:25 PM55 °FPassing clouds.13 mph51%30.36 "HgN/A
11:55 AM54 °FCool.13 mph54%30.36 "HgN/A
11:25 AM54 °FCool.10 mph58%30.36 "HgN/A
10:55 AM52 °FCool.9 mph62%30.36 "HgN/A
10:25 AM50 °FCool.10 mph62%30.36 "HgN/A
9:55 AM50 °FClear.9 mph67%30.36 "HgN/A
9:25 AM46 °FCool.13 mph76%30.36 "HgN/A
8:55 AM46 °FCool.10 mph82%30.36 "HgN/A
8:25 AM45 °FQuite cool.8 mph81%30.36 "HgN/A
7:55 AM39 °FChilly.3 mph93%30.36 "HgN/A
7:25 AM37 °FChilly.2 mph100%30.33 "HgN/A
6:55 AM37 °FChilly.1 mph93%30.33 "HgN/A
6:25 AM36 °FChilly.2 mph100%30.30 "HgN/A
5:55 AM36 °FClear.2 mph93%30.30 "HgN/A
5:25 AM36 °FChilly.2 mph100%30.30 "HgN/A
4:55 AM37 °FChilly.2 mph93%30.30 "HgN/A
4:25 AM39 °FChilly.5 mph87%30.30 "HgN/A
3:55 AM39 °FChilly.6 mph93%30.30 "HgN/A
3:25 AM39 °FChilly.3 mph93%30.30 "HgN/A
2:55 AM41 °FQuite cool.3 mph87%30.30 "HgN/A
2:25 AM41 °FQuite cool.3 mph87%30.30 "HgN/A
1:55 AM41 °FQuite cool.2 mph87%30.30 "HgN/A
1:25 AM41 °FQuite cool.5 mph87%30.30 "HgN/A
12:55 AM43 °FQuite cool.8 mph81%30.27 "HgN/A
12:25 AM43 °FClear.6 mph81%30.27 "HgN/A
11:55 PM
Fri, Apr 17
43 °FQuite cool.7 mph81%30.27 "HgN/A
11:25 PM45 °FQuite cool.8 mph76%30.24 "HgN/A
10:55 PM45 °FQuite cool.9 mph76%30.24 "HgN/A
10:25 PM45 °FQuite cool.10 mph76%30.24 "HgN/A
Weather by CustomWeather, © 2015

See weather overviewHow to use our weather pages